contact:dominique.lefevre@mio.osupytheas.fr, maurice.libes@osupytheas.fr, didier.mallarino@osupytheas.fr
Project:EMSO http://www.emso-fr.org/EMSO-France
Depth: 2436.0 m
Title:EMSO Ligure Ouest : Data MII capteur AQUADOPP
Date,Latitude,Longitude,X_East,Y_North,Z_Up,Amplitude_X,Amplitude_Y,Amplitude_Z,Batterie,SoundSpeed,Heading,Pitch,Roll,Pressure,TIS,Speed,Direction
, degrees North, degrees East, m.s-1, m.s-1,m.s-1, 1, 1, 1, Volt, m.s-1, degree, degree, degree, dbar, degree_C, m.s-1, degree
2022-05-02T00:04:03,42.805,6.029,0.01,0.0,-0.006,101.0,102.0,101.0,13.4,1505.2,325.4,-0.8,1.8,2470.586,13.28,0.01,90.0
2022-05-02T00:07:03,42.805,6.029,0.025,0.008,0.026,101.0,102.0,101.0,13.3,1505.2,324.2,-0.7,1.9,2470.6,13.28,0.026,72.3
2022-05-02T00:10:03,42.805,6.029,0.058,-0.024,-0.027,101.0,101.0,100.0,13.4,1505.2,329.4,-0.8,1.8,2470.571,13.28,0.062,112.5
2022-05-02T00:13:03,42.805,6.029,0.024,0.011,0.013,100.0,101.0,100.0,13.3,1505.2,325.6,-0.7,1.8,2470.55,13.28,0.026,65.4
2022-05-02T00:16:03,42.805,6.029,0.009,-0.006,0.016,101.0,100.0,99.0,13.4,1505.2,326.3,-0.7,1.8,2470.571,13.28,0.01,123.7
2022-05-02T00:19:03,42.805,6.029,0.024,-0.003,0.01,100.0,101.0,100.0,13.3,1505.2,324.5,-0.7,1.8,2470.564,13.28,0.024,97.1
2022-05-02T00:22:03,42.805,6.029,0.006,-0.009,0.003,100.0,102.0,100.0,13.3,1505.2,328.8,-0.7,1.8,2470.545,13.28,0.01,146.3
2022-05-02T00:25:03,42.805,6.029,0.01,-0.01,0.013,100.0,102.0,100.0,13.3,1505.2,329.5,-0.8,1.8,2470.527,13.28,0.014,135.0
2022-05-02T00:28:03,42.805,6.029,0.027,0.018,0.029,101.0,102.0,100.0,13.4,1505.2,322.8,-0.7,1.8,2470.526,13.28,0.032,56.3
2022-05-02T00:31:03,42.805,6.029,0.032,0.004,-0.014,100.0,102.0,99.0,13.4,1505.2,330.1,-0.8,1.8,2470.548,13.28,0.032,82.9
2022-05-02T00:34:03,42.805,6.029,-0.002,0.009,-0.028,102.0,101.0,99.0,13.4,1505.2,328.4,-0.8,1.8,2470.557,13.28,0.009,347.5
2022-05-02T00:37:03,42.805,6.029,0.008,0.002,0.007,102.0,102.0,100.0,13.4,1505.2,325.5,-0.7,1.8,2470.579,13.28,0.008,76.0
2022-05-02T00:40:03,42.805,6.029,-0.001,0.01,-0.01,101.0,100.0,100.0,13.4,1505.2,327.7,-0.8,1.8,2470.522,13.28,0.01,354.3
2022-05-02T00:43:03,42.805,6.029,0.011,-0.012,0.009,102.0,102.0,99.0,13.4,1505.2,330.6,-0.8,1.8,2470.554,13.28,0.016,137.5
2022-05-02T00:46:03,42.805,6.029,0.034,-0.007,0.011,101.0,103.0,100.0,13.4,1505.2,332.4,-0.7,1.8,2470.575,13.28,0.034,101.6
2022-05-02T00:49:03,42.805,6.029,0.013,-0.001,0.025,101.0,101.0,100.0,13.4,1505.2,333.0,-0.8,1.8,2470.573,13.28,0.013,94.4
2022-05-02T00:52:03,42.805,6.029,0.027,0.029,0.009,99.0,103.0,100.0,13.4,1505.2,325.3,-0.8,1.8,2470.597,13.28,0.039,43.0
2022-05-02T00:55:03,42.805,6.029,0.027,0.019,0.033,100.0,103.0,100.0,13.3,1505.2,326.4,-0.8,1.8,2470.549,13.28,0.033,54.9
2022-05-02T00:58:03,42.805,6.029,0.016,0.031,0.041,102.0,101.0,102.0,13.4,1505.2,327.4,-0.8,1.8,2470.522,13.28,0.034,27.3
2022-05-02T01:04:03,42.805,6.029,0.034,-0.008,-0.026,104.0,103.0,103.0,13.4,1505.2,331.3,-0.8,1.8,2470.581,13.28,0.034,103.2
2022-05-02T01:07:03,42.805,6.029,0.014,0.008,0.003,102.0,104.0,101.0,13.4,1505.2,328.2,-0.8,1.8,2470.527,13.28,0.016,60.3
2022-05-02T01:10:03,42.805,6.029,0.006,-0.003,0.031,101.0,102.0,100.0,13.4,1505.2,328.8,-0.8,1.8,2470.54,13.28,0.006,116.6
2022-05-02T01:13:03,42.805,6.029,0.012,0.018,0.021,101.0,103.0,99.0,13.4,1505.2,330.6,-0.7,1.8,2470.52,13.28,0.021,33.7
2022-05-02T01:16:03,42.805,6.029,0.021,-0.003,-0.011,100.0,104.0,100.0,13.3,1505.2,329.3,-0.7,1.8,2470.525,13.28,0.021,98.1
2022-05-02T01:19:03,42.805,6.029,0.02,0.014,0.032,100.0,103.0,99.0,13.4,1505.2,323.6,-0.8,1.8,2470.547,13.28,0.024,55.0
2022-05-02T01:22:03,42.805,6.029,0.019,0.031,0.048,102.0,103.0,99.0,13.3,1505.2,328.5,-0.8,1.9,2470.522,13.28,0.036,31.5
2022-05-02T01:25:03,42.805,6.029,0.018,0.016,-0.002,99.0,103.0,101.0,13.4,1505.2,322.8,-0.8,1.8,2470.526,13.28,0.024,48.4
2022-05-02T01:28:03,42.805,6.029,0.035,0.016,0.0,99.0,102.0,101.0,13.3,1505.2,325.4,-0.8,1.8,2470.511,13.28,0.038,65.4
2022-05-02T01:31:03,42.805,6.029,0.01,-0.005,0.027,99.0,104.0,100.0,13.4,1505.2,328.7,-0.8,1.8,2470.517,13.28,0.011,116.6
2022-05-02T01:34:03,42.805,6.029,-0.017,0.013,-0.03,101.0,104.0,98.0,13.3,1505.2,328.0,-0.7,1.8,2470.579,13.28,0.021,307.4
2022-05-02T01:37:03,42.805,6.029,0.04,0.009,0.033,101.0,103.0,100.0,13.4,1505.2,324.0,-0.7,1.8,2470.53,13.28,0.041,77.3
2022-05-02T01:40:03,42.805,6.029,0.033,0.013,0.073,99.0,104.0,100.0,13.4,1505.2,328.2,-0.8,1.8,2470.542,13.28,0.035,68.5
2022-05-02T01:43:03,42.805,6.029,0.021,0.018,0.024,102.0,102.0,100.0,13.4,1505.2,326.5,-0.8,1.8,2470.539,13.28,0.027,49.4
2022-05-02T01:46:03,42.805,6.029,0.017,0.016,-0.027,102.0,103.0,99.0,13.4,1505.2,324.1,-0.8,1.8,2470.529,13.28,0.023,46.7
2022-05-02T01:49:03,42.805,6.029,0.054,0.001,0.041,101.0,104.0,100.0,13.3,1505.2,323.3,-0.8,1.8,2470.534,13.28,0.054,88.9
2022-05-02T01:52:03,42.805,6.029,0.022,0.015,0.004,102.0,103.0,100.0,13.4,1505.2,328.5,-0.7,1.8,2470.521,13.28,0.026,55.7
2022-05-02T01:55:03,42.805,6.029,0.04,-0.008,0.0,100.0,104.0,100.0,13.4,1505.2,323.5,-0.8,1.9,2470.675,13.28,0.04,101.3
2022-05-02T01:58:03,42.805,6.029,0.033,-0.005,0.025,100.0,104.0,100.0,13.4,1505.2,323.4,-0.7,1.8,2470.48,13.28,0.033,98.6
2022-05-02T02:04:03,42.805,6.029,0.023,0.013,-0.024,102.0,103.0,100.0,13.4,1505.2,325.4,-0.7,1.8,2470.471,13.28,0.026,60.5
2022-05-02T02:07:03,42.805,6.029,0.031,0.003,0.002,101.0,104.0,100.0,13.4,1505.2,325.6,-0.7,1.8,2470.45,13.28,0.031,84.5
2022-05-02T02:10:03,42.805,6.029,0.036,0.01,0.026,101.0,104.0,101.0,13.4,1505.2,329.0,-0.8,1.8,2470.472,13.28,0.037,74.5
2022-05-02T02:13:03,42.805,6.029,0.042,-0.012,0.009,101.0,105.0,101.0,13.4,1505.2,328.8,-0.7,1.8,2470.46,13.28,0.043,105.9
2022-05-02T02:16:03,42.805,6.029,0.038,0.012,0.047,100.0,105.0,101.0,13.3,1505.2,322.9,-0.7,1.9,2470.503,13.28,0.039,72.5
2022-05-02T02:19:03,42.805,6.029,0.034,-0.008,0.002,101.0,104.0,100.0,13.4,1505.2,331.6,-0.8,1.8,2470.467,13.28,0.034,103.2
2022-05-02T02:22:03,42.805,6.029,0.045,0.009,-0.015,101.0,103.0,101.0,13.4,1505.2,321.3,-0.7,1.8,2470.458,13.28,0.045,78.7
2022-05-02T02:25:03,42.805,6.029,0.021,0.009,0.024,102.0,104.0,100.0,13.4,1505.2,325.4,-0.8,1.8,2470.466,13.28,0.022,66.8
2022-05-02T02:28:03,42.805,6.029,0.04,0.02,-0.017,102.0,103.0,99.0,13.4,1505.2,323.9,-0.8,1.8,2470.483,13.28,0.044,63.4
2022-05-02T02:31:03,42.805,6.029,0.047,0.014,0.012,101.0,104.0,100.0,13.4,1505.2,327.9,-0.8,1.8,2470.461,13.28,0.049,73.4
2022-05-02T02:34:03,42.805,6.029,0.037,-0.006,0.02,101.0,103.0,100.0,13.3,1505.2,328.2,-0.8,1.9,2470.469,13.28,0.037,99.2
2022-05-02T02:37:03,42.805,6.029,0.014,0.004,-0.008,101.0,103.0,101.0,13.3,1505.2,325.5,-0.8,1.8,2470.406,13.28,0.014,74.1
2022-05-02T02:40:03,42.805,6.029,0.044,-0.003,0.016,102.0,104.0,99.0,13.3,1505.2,328.2,-0.7,1.8,2470.486,13.28,0.044,93.9
2022-05-02T02:43:03,42.805,6.029,0.01,-0.002,-0.006,102.0,103.0,100.0,13.4,1505.2,325.4,-0.7,1.8,2470.458,13.28,0.01,101.3
2022-05-02T02:46:03,42.805,6.029,0.019,0.0,-0.015,101.0,103.0,100.0,13.4,1505.2,327.7,-0.7,1.8,2470.422,13.28,0.019,90.0
2022-05-02T02:49:03,42.805,6.029,0.055,0.009,-0.01,101.0,103.0,101.0,13.4,1505.2,322.3,-0.8,1.8,2470.423,13.28,0.055,80.7
2022-05-02T02:52:03,42.805,6.029,0.044,0.013,0.003,102.0,103.0,100.0,13.4,1505.2,326.8,-0.8,1.8,2470.491,13.28,0.045,73.5
2022-05-02T02:55:03,42.805,6.029,0.032,-0.006,-0.037,103.0,102.0,100.0,13.4,1505.2,327.3,-0.8,1.8,2470.445,13.28,0.032,100.6
2022-05-02T02:58:03,42.805,6.029,0.046,-0.007,0.028,102.0,104.0,100.0,13.4,1505.2,332.1,-0.7,1.8,2470.469,13.28,0.046,98.7
2022-05-02T03:04:03,42.805,6.029,0.03,0.004,-0.003,101.0,103.0,100.0,13.3,1505.2,324.5,-0.8,1.8,2470.477,13.28,0.03,82.4
2022-05-02T03:07:03,42.805,6.029,0.041,0.004,0.024,101.0,104.0,100.0,13.3,1505.2,326.4,-0.8,1.8,2470.494,13.28,0.041,84.4
2022-05-02T03:10:03,42.805,6.029,0.026,0.017,0.017,101.0,103.0,100.0,13.4,1505.2,324.7,-0.7,1.8,2470.429,13.28,0.031,56.8
2022-05-02T03:13:03,42.805,6.029,0.034,-0.014,0.001,101.0,104.0,100.0,13.3,1505.2,332.8,-0.8,1.8,2470.458,13.28,0.036,112.4
2022-05-02T03:16:03,42.805,6.029,0.005,0.029,0.024,103.0,104.0,100.0,13.4,1505.2,330.5,-0.7,1.8,2470.462,13.28,0.029,9.8
2022-05-02T03:19:03,42.805,6.029,0.018,0.005,0.006,102.0,105.0,100.0,13.4,1505.2,330.3,-0.8,1.8,2470.464,13.28,0.018,74.5
2022-05-02T03:22:03,42.805,6.029,0.039,-0.006,0.009,101.0,104.0,100.0,13.4,1505.2,329.1,-0.8,1.8,2470.485,13.28,0.039,98.7
2022-05-02T03:25:03,42.805,6.029,0.063,-0.006,0.036,101.0,104.0,100.0,13.4,1505.2,323.2,-0.8,1.8,2470.464,13.28,0.063,95.4
2022-05-02T03:28:03,42.805,6.029,0.04,0.001,0.014,101.0,104.0,100.0,13.3,1505.2,328.9,-0.7,1.8,2470.517,13.28,0.04,88.6
2022-05-02T03:31:03,42.805,6.029,0.043,-0.021,0.027,101.0,104.0,100.0,13.3,1505.2,325.4,-0.8,1.8,2470.455,13.28,0.047,116.0
2022-05-02T03:34:03,42.805,6.029,0.038,-0.003,0.01,101.0,102.0,100.0,13.4,1505.2,333.0,-0.8,1.9,2470.459,13.28,0.038,94.5
2022-05-02T03:37:03,42.805,6.029,0.016,0.008,-0.004,101.0,103.0,100.0,13.4,1505.2,330.1,-0.8,1.8,2470.478,13.28,0.017,63.4
2022-05-02T03:40:03,42.805,6.029,0.017,0.027,0.014,101.0,103.0,100.0,13.4,1505.2,329.1,-0.7,1.8,2470.471,13.28,0.031,32.2
2022-05-02T03:43:03,42.805,6.029,0.019,0.014,-0.002,101.0,103.0,100.0,13.4,1505.2,324.9,-0.7,1.8,2470.445,13.28,0.023,53.6
2022-05-02T03:46:03,42.805,6.029,0.03,-0.014,0.013,101.0,103.0,99.0,13.4,1505.2,326.0,-0.7,1.8,2470.47,13.28,0.033,115.0
2022-05-02T03:49:03,42.805,6.029,0.042,-0.011,0.01,101.0,103.0,100.0,13.3,1505.2,331.7,-0.7,1.8,2470.475,13.28,0.043,104.7
2022-05-02T03:52:03,42.805,6.029,0.054,0.008,0.01,101.0,103.0,100.0,13.3,1505.2,323.5,-0.7,1.8,2470.454,13.28,0.054,81.6
2022-05-02T03:55:03,42.805,6.029,0.043,0.002,0.034,101.0,103.0,100.0,13.4,1505.2,325.4,-0.8,1.8,2470.43,13.28,0.043,87.3
2022-05-02T03:58:03,42.805,6.029,0.041,-0.005,0.033,102.0,103.0,100.0,13.4,1505.2,330.5,-0.7,1.8,2470.462,13.28,0.041,97.0
2022-05-02T04:04:03,42.805,6.029,0.018,-0.012,-0.007,102.0,103.0,100.0,13.4,1505.2,324.0,-0.8,1.8,2470.437,13.28,0.021,123.7
2022-05-02T04:07:03,42.805,6.029,0.019,0.007,-0.006,101.0,103.0,100.0,13.4,1505.2,325.2,-0.8,1.8,2470.47,13.28,0.02,69.8
2022-05-02T04:10:03,42.805,6.029,0.062,0.009,0.029,102.0,103.0,100.0,13.4,1505.2,329.8,-0.7,1.8,2470.419,13.28,0.062,81.7
2022-05-02T04:13:03,42.805,6.029,0.044,-0.002,-0.02,101.0,102.0,100.0,13.4,1505.2,330.3,-0.7,1.8,2470.476,13.28,0.044,92.6
2022-05-02T04:16:03,42.805,6.029,0.046,-0.009,0.032,100.0,103.0,100.0,13.4,1505.2,326.9,-0.8,1.8,2470.463,13.28,0.046,101.1
2022-05-02T04:19:03,42.805,6.029,0.023,0.0,-0.001,100.0,104.0,100.0,13.4,1505.2,328.9,-0.7,1.8,2470.45,13.28,0.023,90.0
2022-05-02T04:22:03,42.805,6.029,0.017,0.003,-0.004,99.0,103.0,101.0,13.4,1505.2,330.5,-0.8,1.8,2470.457,13.28,0.017,80.0
2022-05-02T04:25:03,42.805,6.029,0.053,0.012,0.005,100.0,102.0,100.0,13.4,1505.2,330.5,-0.7,1.9,2470.458,13.28,0.054,77.2
2022-05-02T04:28:03,42.805,6.029,0.015,-0.006,-0.024,100.0,103.0,100.0,13.4,1505.2,327.0,-0.8,1.8,2470.435,13.28,0.016,111.8
2022-05-02T04:31:03,42.805,6.029,0.019,0.018,0.005,101.0,103.0,100.0,13.4,1505.2,323.3,-0.8,1.8,2470.48,13.28,0.026,46.5
2022-05-02T04:34:03,42.805,6.029,0.037,0.004,0.008,101.0,103.0,100.0,13.4,1505.2,326.9,-0.8,1.8,2470.453,13.28,0.037,83.8
2022-05-02T04:37:03,42.805,6.029,0.039,0.016,0.039,101.0,103.0,100.0,13.4,1505.2,330.4,-0.7,1.8,2470.467,13.28,0.042,67.7
2022-05-02T04:40:03,42.805,6.029,0.038,-0.012,0.011,101.0,103.0,100.0,13.4,1505.2,329.3,-0.7,1.8,2470.461,13.28,0.039,107.5
2022-05-02T04:43:03,42.805,6.029,0.018,0.006,-0.003,101.0,103.0,100.0,13.3,1505.2,326.1,-0.7,1.8,2470.465,13.28,0.018,71.6
2022-05-02T04:46:03,42.805,6.029,0.031,0.004,0.019,101.0,102.0,100.0,13.4,1505.2,329.7,-0.8,1.8,2470.498,13.28,0.031,82.7
2022-05-02T04:49:03,42.805,6.029,-0.007,0.002,-0.046,101.0,102.0,100.0,13.4,1505.2,326.5,-0.7,1.9,2470.489,13.28,0.007,285.9
2022-05-02T04:52:03,42.805,6.029,0.071,0.011,0.026,101.0,104.0,100.0,13.4,1505.2,327.9,-0.7,1.8,2470.473,13.28,0.071,81.2
2022-05-02T04:55:03,42.805,6.029,0.037,-0.014,-0.005,101.0,103.0,100.0,13.4,1505.2,322.1,-0.7,1.8,2470.484,13.28,0.039,110.7
2022-05-02T04:58:03,42.805,6.029,0.02,0.012,0.011,99.0,104.0,100.0,13.3,1505.2,326.0,-0.8,1.8,2470.477,13.28,0.023,59.0
2022-05-02T05:04:03,42.805,6.029,0.055,0.014,0.04,101.0,103.0,99.0,13.4,1505.2,324.9,-0.7,1.8,2470.493,13.28,0.056,75.7
2022-05-02T05:07:03,42.805,6.029,0.039,0.007,0.022,102.0,103.0,100.0,13.3,1505.2,325.6,-0.7,1.8,2470.483,13.28,0.039,79.8
2022-05-02T05:10:03,42.805,6.029,0.054,-0.02,-0.012,100.0,103.0,100.0,13.3,1505.2,332.8,-0.8,1.9,2470.492,13.28,0.057,110.3
2022-05-02T05:13:03,42.805,6.029,0.047,-0.001,0.02,101.0,103.0,99.0,13.3,1505.2,321.9,-0.8,1.8,2470.499,13.28,0.047,91.2
2022-05-02T05:16:03,42.805,6.029,0.035,-0.007,-0.027,101.0,103.0,100.0,13.3,1505.2,324.8,-0.8,1.8,2470.501,13.28,0.035,101.3
2022-05-02T05:19:03,42.805,6.029,0.039,0.009,0.03,100.0,103.0,99.0,13.3,1505.2,327.7,-0.8,1.8,2470.53,13.28,0.04,77.0
2022-05-02T05:22:03,42.805,6.029,0.041,0.002,0.023,100.0,103.0,100.0,13.3,1505.2,327.8,-0.7,1.8,2470.504,13.28,0.041,87.2
2022-05-02T05:25:03,42.805,6.029,0.039,0.008,0.017,101.0,103.0,100.0,13.4,1505.2,325.0,-0.8,1.8,2470.495,13.28,0.039,78.4
2022-05-02T05:28:03,42.805,6.029,0.002,0.008,0.025,101.0,103.0,99.0,13.4,1505.2,327.9,-0.7,1.8,2470.492,13.28,0.008,14.0
2022-05-02T05:31:03,42.805,6.029,0.034,0.002,-0.003,101.0,102.0,100.0,13.4,1505.2,327.2,-0.8,1.8,2470.507,13.28,0.034,86.6
2022-05-02T05:34:03,42.805,6.029,0.035,0.008,0.005,101.0,103.0,100.0,13.3,1505.2,322.7,-0.8,1.8,2470.479,13.28,0.035,77.1
2022-05-02T05:37:03,42.805,6.029,0.053,-0.006,-0.013,102.0,102.0,99.0,13.4,1505.2,325.4,-0.7,1.8,2470.492,13.28,0.053,96.5
2022-05-02T05:40:03,42.805,6.029,0.062,-0.005,0.0,100.0,103.0,100.0,13.3,1505.2,324.8,-0.8,1.8,2470.493,13.28,0.062,94.6
2022-05-02T05:43:03,42.805,6.029,0.017,0.003,-0.012,100.0,103.0,100.0,13.4,1505.2,332.8,-0.7,1.8,2470.564,13.28,0.017,80.0
2022-05-02T05:46:03,42.805,6.029,0.042,-0.013,0.011,101.0,101.0,100.0,13.4,1505.2,326.9,-0.7,1.8,2470.509,13.28,0.043,107.2
2022-05-02T05:49:03,42.805,6.029,0.019,0.005,-0.015,101.0,102.0,100.0,13.4,1505.2,321.8,-0.7,1.8,2470.491,13.28,0.019,75.3
2022-05-02T05:52:03,42.805,6.029,0.053,0.003,0.021,102.0,101.0,101.0,13.3,1505.2,323.1,-0.8,1.8,2470.506,13.28,0.053,86.8
2022-05-02T05:55:03,42.805,6.029,0.05,-0.003,0.033,101.0,101.0,100.0,13.3,1505.2,330.2,-0.8,1.8,2470.498,13.28,0.05,93.4
2022-05-02T05:58:03,42.805,6.029,0.021,-0.022,-0.034,99.0,104.0,100.0,13.4,1505.2,324.9,-0.8,1.8,2470.548,13.28,0.03,136.3
2022-05-02T06:04:03,42.805,6.029,0.028,-0.016,-0.029,100.0,103.0,100.0,13.4,1505.2,326.6,-0.7,1.8,2470.497,13.28,0.032,119.7
2022-05-02T06:07:03,42.805,6.029,0.036,-0.001,0.011,102.0,101.0,99.0,13.4,1505.2,325.2,-0.8,1.8,2470.5,13.28,0.036,91.6
2022-05-02T06:10:03,42.805,6.029,0.034,0.002,-0.009,101.0,103.0,100.0,13.4,1505.2,321.8,-0.8,1.8,2470.506,13.28,0.034,86.6
2022-05-02T06:13:03,42.805,6.029,0.016,-0.005,-0.007,102.0,102.0,100.0,13.3,1505.2,321.4,-0.7,1.8,2470.517,13.28,0.016,107.4
2022-05-02T06:16:03,42.805,6.029,0.015,0.009,0.006,102.0,101.0,100.0,13.3,1505.2,326.4,-0.7,1.8,2470.513,13.28,0.017,59.0
2022-05-02T06:19:03,42.805,6.029,0.042,-0.019,-0.006,101.0,101.0,99.0,13.3,1505.2,332.1,-0.7,1.8,2470.524,13.28,0.046,114.3
2022-05-02T06:22:03,42.805,6.029,0.034,-0.001,-0.007,100.0,103.0,99.0,13.3,1505.2,323.3,-0.7,1.8,2470.525,13.28,0.034,91.7
2022-05-02T06:25:03,42.805,6.029,0.036,-0.013,-0.024,100.0,102.0,100.0,13.4,1505.2,324.8,-0.8,1.8,2470.557,13.28,0.038,109.9
2022-05-02T06:28:03,42.805,6.029,0.035,0.006,-0.007,100.0,103.0,99.0,13.4,1505.2,325.4,-0.7,1.8,2470.797,13.28,0.035,80.3
2022-05-02T06:31:03,42.805,6.029,0.043,-0.012,-0.005,101.0,101.0,100.0,13.4,1505.2,332.0,-0.7,1.8,2470.835,13.28,0.044,105.6
2022-05-02T06:34:03,42.805,6.029,0.035,-0.01,-0.027,102.0,102.0,99.0,13.4,1505.2,331.8,-0.7,1.8,2470.634,13.28,0.036,105.9
2022-05-02T06:37:03,42.805,6.029,0.037,-0.005,-0.006,100.0,103.0,100.0,13.4,1505.2,328.3,-0.8,1.8,2470.59,13.28,0.037,97.7
2022-05-02T06:40:03,42.805,6.029,0.045,0.007,0.007,101.0,101.0,100.0,13.4,1505.2,326.0,-0.8,1.8,2470.552,13.28,0.045,81.2
2022-05-02T06:43:03,42.805,6.029,0.032,0.013,0.022,100.0,104.0,100.0,13.4,1505.2,328.8,-0.8,1.8,2470.578,13.28,0.034,67.9
2022-05-02T06:46:03,42.805,6.029,0.039,-0.034,-0.041,101.0,102.0,99.0,13.4,1505.2,322.4,-0.7,1.8,2470.632,13.28,0.051,131.1
2022-05-02T06:49:03,42.805,6.029,0.049,-0.017,-0.025,101.0,101.0,100.0,13.4,1505.2,327.9,-0.8,1.8,2470.745,13.28,0.051,109.1
2022-05-02T06:52:03,42.805,6.029,0.044,-0.003,-0.009,102.0,102.0,100.0,13.3,1505.2,327.0,-0.7,1.8,2470.667,13.28,0.044,93.9
2022-05-02T06:55:03,42.805,6.029,0.022,-0.024,-0.019,101.0,101.0,100.0,13.4,1505.2,324.7,-0.8,1.8,2470.613,13.28,0.032,137.5
2022-05-02T06:58:03,42.805,6.029,0.058,0.0,0.048,101.0,101.0,100.0,13.4,1505.2,330.3,-0.8,1.8,2470.53,13.28,0.057,90.0
2022-05-02T07:04:03,42.805,6.029,0.033,-0.002,0.023,101.0,102.0,100.0,13.3,1505.2,328.5,-0.7,1.8,2470.496,13.28,0.033,93.5
2022-05-02T07:07:03,42.805,6.029,0.029,0.007,-0.015,101.0,102.0,99.0,13.4,1505.2,322.5,-0.8,1.8,2470.497,13.28,0.029,76.4
2022-05-02T07:10:03,42.805,6.029,0.014,-0.009,-0.02,101.0,103.0,99.0,13.4,1505.2,327.1,-0.8,1.8,2470.46,13.28,0.016,122.7
2022-05-02T07:13:03,42.805,6.029,0.008,0.015,0.032,100.0,102.0,100.0,13.4,1505.2,325.3,-0.7,1.8,2470.514,13.28,0.017,28.1
2022-05-02T07:16:03,42.805,6.029,0.04,-0.003,-0.009,102.0,101.0,101.0,13.4,1505.2,324.9,-0.8,1.8,2470.512,13.28,0.04,94.3
2022-05-02T07:19:03,42.805,6.029,0.032,-0.019,-0.02,101.0,101.0,100.0,13.4,1505.2,327.6,-0.8,1.8,2470.581,13.28,0.037,120.7
2022-05-02T07:22:03,42.805,6.029,0.019,0.022,0.03,101.0,101.0,99.0,13.3,1505.2,328.1,-0.8,1.8,2470.555,13.28,0.029,40.8
2022-05-02T07:25:03,42.805,6.029,0.034,-0.008,-0.01,102.0,102.0,99.0,13.4,1505.2,326.0,-0.8,1.8,2470.608,13.28,0.034,103.2
2022-05-02T07:28:03,42.805,6.029,0.032,-0.015,-0.009,101.0,101.0,100.0,13.4,1505.2,327.6,-0.8,1.8,2470.622,13.28,0.035,115.1
2022-05-02T07:31:03,42.805,6.029,0.044,-0.003,0.012,101.0,103.0,100.0,13.3,1505.2,322.1,-0.8,1.8,2470.667,13.28,0.044,93.9
2022-05-02T07:34:03,42.805,6.029,0.018,-0.005,0.002,102.0,101.0,100.0,13.4,1505.2,330.5,-0.8,1.8,2470.665,13.28,0.018,105.5
2022-05-02T07:37:03,42.805,6.029,0.029,0.002,-0.003,102.0,102.0,99.0,13.4,1505.2,323.7,-0.8,1.8,2470.653,13.28,0.029,86.1
2022-05-02T07:40:03,42.805,6.029,0.025,-0.003,-0.002,102.0,101.0,100.0,13.4,1505.2,332.0,-0.7,1.8,2470.68,13.28,0.025,96.8
2022-05-02T07:43:03,42.805,6.029,0.037,-0.012,-0.016,100.0,102.0,100.0,13.4,1505.2,332.0,-0.8,1.8,2470.697,13.28,0.038,108.0
2022-05-02T07:46:03,42.805,6.029,0.027,-0.023,0.007,101.0,102.0,100.0,13.4,1505.2,325.3,-0.8,1.8,2470.673,13.28,0.035,130.4
2022-05-02T07:49:03,42.805,6.029,0.039,-0.013,0.004,101.0,102.0,101.0,13.4,1505.2,326.3,-0.7,1.8,2470.681,13.28,0.041,108.4
2022-05-02T07:52:03,42.805,6.029,0.055,-0.012,0.001,101.0,101.0,100.0,13.4,1505.2,325.0,-0.8,1.8,2470.651,13.28,0.056,102.3
2022-05-02T07:55:03,42.805,6.029,0.06,-0.003,0.006,101.0,101.0,100.0,13.3,1505.2,323.2,-0.8,1.8,2470.581,13.28,0.06,92.9
2022-05-02T07:58:03,42.805,6.029,0.041,-0.018,0.006,101.0,101.0,100.0,13.3,1505.2,328.5,-0.8,1.8,2470.591,13.28,0.044,113.7
2022-05-02T08:04:03,42.805,6.029,0.013,0.011,0.011,100.0,103.0,100.0,13.3,1505.2,327.0,-0.8,1.8,2470.591,13.28,0.017,49.8
2022-05-02T08:07:03,42.805,6.029,0.029,0.002,-0.005,101.0,102.0,100.0,13.3,1505.2,322.8,-0.8,1.8,2470.537,13.28,0.029,86.1
2022-05-02T08:10:03,42.805,6.029,0.007,-0.011,-0.031,102.0,100.0,100.0,13.4,1505.2,328.8,-0.7,1.8,2470.52,13.28,0.013,147.5
2022-05-02T08:13:03,42.805,6.029,-0.001,0.007,0.003,102.0,100.0,101.0,13.4,1505.2,332.0,-0.8,1.8,2470.488,13.28,0.007,351.9
2022-05-02T08:16:03,42.805,6.029,0.04,0.0,0.026,101.0,102.0,99.0,13.4,1505.2,327.7,-0.8,1.8,2470.475,13.28,0.04,90.0
2022-05-02T08:19:03,42.805,6.029,0.031,-0.011,-0.017,101.0,102.0,100.0,13.4,1505.2,327.2,-0.8,1.8,2470.501,13.28,0.032,109.5
2022-05-02T08:22:03,42.805,6.029,0.009,-0.001,-0.035,100.0,103.0,100.0,13.4,1505.2,321.8,-0.8,1.8,2470.486,13.28,0.009,96.3
2022-05-02T08:25:03,42.805,6.029,0.013,0.006,0.022,100.0,102.0,100.0,13.4,1505.2,327.3,-0.8,1.8,2470.477,13.28,0.014,65.2
2022-05-02T08:28:03,42.805,6.029,0.037,-0.006,-0.004,101.0,101.0,100.0,13.4,1505.2,322.2,-0.8,1.8,2470.499,13.28,0.037,99.2
2022-05-02T08:31:03,42.805,6.029,0.029,-0.013,-0.007,99.0,102.0,100.0,13.4,1505.2,326.0,-0.8,1.8,2470.516,13.28,0.031,114.1
2022-05-02T08:34:03,42.805,6.029,0.024,-0.002,-0.001,101.0,103.0,100.0,13.4,1505.2,332.8,-0.8,1.8,2470.51,13.28,0.024,94.8
2022-05-02T08:37:03,42.805,6.029,0.029,-0.02,-0.007,101.0,101.0,100.0,13.4,1505.2,323.6,-0.8,1.8,2470.48,13.28,0.035,124.6
2022-05-02T08:40:03,42.805,6.029,0.025,-0.01,0.014,101.0,101.0,100.0,13.4,1505.2,328.3,-0.8,1.8,2470.474,13.28,0.026,111.8
2022-05-02T08:43:03,42.805,6.029,0.014,-0.021,-0.002,100.0,102.0,100.0,13.3,1505.2,332.3,-0.8,1.9,2470.503,13.28,0.025,146.3
2022-05-02T08:46:03,42.805,6.029,0.023,-0.028,-0.025,101.0,103.0,100.0,13.4,1505.2,326.7,-0.7,1.8,2470.457,13.28,0.036,140.6
2022-05-02T08:49:03,42.805,6.029,0.029,-0.01,0.012,101.0,102.0,100.0,13.4,1505.2,325.3,-0.8,1.8,2470.465,13.28,0.03,109.0
2022-05-02T08:52:03,42.805,6.029,0.022,-0.006,0.004,101.0,102.0,99.0,13.4,1505.2,327.5,-0.8,1.8,2470.471,13.28,0.022,105.3
2022-05-02T08:55:03,42.805,6.029,0.014,0.004,-0.001,101.0,101.0,100.0,13.4,1505.2,323.0,-0.8,1.8,2470.495,13.28,0.014,74.1
2022-05-02T08:58:03,42.805,6.029,0.015,0.0,-0.017,101.0,101.0,100.0,13.4,1505.2,327.7,-0.8,1.9,2470.465,13.28,0.015,90.0
2022-05-02T09:04:03,42.805,6.029,0.011,0.007,0.016,102.0,100.0,100.0,13.4,1505.2,321.7,-0.8,1.8,2470.421,13.28,0.013,57.5
2022-05-02T09:07:03,42.805,6.029,0.03,0.005,0.021,102.0,101.0,100.0,13.3,1505.2,329.8,-0.8,1.8,2470.456,13.28,0.03,80.5
2022-05-02T09:10:03,42.805,6.029,0.042,-0.014,0.004,102.0,102.0,101.0,13.4,1505.2,327.6,-0.8,1.8,2470.456,13.28,0.044,108.4
2022-05-02T09:13:03,42.805,6.029,-0.003,-0.01,0.01,101.0,101.0,100.0,13.3,1505.2,326.7,-0.7,1.8,2470.48,13.28,0.01,196.7
2022-05-02T09:16:03,42.805,6.029,0.017,0.004,0.011,101.0,101.0,99.0,13.4,1505.2,329.8,-0.8,1.8,2470.451,13.28,0.017,76.8
2022-05-02T09:19:03,42.805,6.029,0.015,-0.005,0.005,100.0,101.0,100.0,13.4,1505.2,324.6,-0.8,1.8,2470.461,13.28,0.015,108.4
2022-05-02T09:22:03,42.805,6.029,0.054,-0.02,-0.028,101.0,102.0,100.0,13.4,1505.2,322.7,-0.8,1.8,2470.467,13.28,0.057,110.3
2022-05-02T09:25:03,42.805,6.029,0.024,-0.003,-0.011,101.0,101.0,100.0,13.4,1505.2,329.1,-0.8,1.8,2470.431,13.28,0.024,97.1
2022-05-02T09:28:03,42.805,6.029,0.023,-0.01,-0.027,100.0,101.0,101.0,13.3,1505.2,327.0,-0.8,1.8,2470.433,13.28,0.025,113.5
2022-05-02T09:31:03,42.805,6.029,0.014,-0.003,0.007,101.0,101.0,100.0,13.3,1505.2,323.9,-0.8,1.8,2470.472,13.28,0.014,102.1
2022-05-02T09:34:03,42.805,6.029,0.047,0.0,0.0,100.0,101.0,100.0,13.3,1505.2,325.1,-0.8,1.8,2470.453,13.28,0.047,90.0
2022-05-02T09:37:03,42.805,6.029,0.048,-0.009,0.014,100.0,102.0,100.0,13.3,1505.2,325.4,-0.7,1.8,2470.452,13.28,0.048,100.6
2022-05-02T09:40:03,42.805,6.029,0.049,-0.014,0.028,101.0,102.0,99.0,13.4,1505.2,326.8,-0.8,1.8,2470.475,13.28,0.05,105.9
2022-05-02T09:43:03,42.805,6.029,0.018,-0.017,0.024,102.0,102.0,100.0,13.3,1505.2,327.0,-0.8,1.8,2470.43,13.28,0.024,133.4
2022-05-02T09:46:03,42.805,6.029,0.003,-0.004,-0.017,100.0,103.0,99.0,13.4,1505.2,329.7,-0.8,1.8,2470.461,13.28,0.005,143.1
2022-05-02T09:49:03,42.805,6.029,0.028,-0.011,0.019,101.0,102.0,99.0,13.4,1505.2,326.7,-0.7,1.8,2470.422,13.28,0.03,111.4
2022-05-02T09:52:03,42.805,6.029,0.016,-0.029,-0.03,100.0,101.0,100.0,13.4,1505.2,324.1,-0.8,1.8,2470.426,13.28,0.033,151.1
2022-05-02T09:55:03,42.805,6.029,0.02,-0.013,-0.031,101.0,102.0,100.0,13.4,1505.2,331.6,-0.8,1.8,2470.452,13.28,0.023,123.0
2022-05-02T09:58:03,42.805,6.029,0.056,0.005,0.023,101.0,101.0,100.0,13.3,1505.2,326.9,-0.8,1.8,2470.457,13.28,0.056,84.9
2022-05-02T10:04:03,42.805,6.029,0.028,-0.013,-0.02,102.0,100.0,100.0,13.4,1505.2,327.1,-0.7,1.8,2470.47,13.28,0.03,114.9